EDW56Z LGKO-LSZH

Flight info

Callsign EDW56Z
Flight time 2h 43m
Altitude 36000
Route LARKI3A LARKI UL609 MES DCT GIKAS DCT DISOR DCT LONTA UL608 DOLEV DCT YUYUH DCT EVAXI DCT ERKIR DCT KPT L856 NEGRA NEGRA2A
Aircraft A320/M-SDE3FGHIRWY/LB1

Departure

Time 2026-04-30 11:03
Airport Kos International Airport "Ippokratis" (LGKO)

Arrival

Time 2026-04-30 13:46
Airport Zürich Airport (LSZH)
Time Latitude Longitude Altitude Speed Heading
2026-04-30 10:40 36.80080 27.08986 419 ft 0 kts 58°
2026-04-30 10:55 36.80068 27.08960 408 ft 4 kts 63°
2026-04-30 10:55 36.80057 27.08929 411 ft 4 kts 75°
2026-04-30 10:56 36.80054 27.08898 411 ft 4 kts 111°
2026-04-30 10:56 36.80063 27.08883 411 ft 1 kts 148°
2026-04-30 10:56 36.80065 27.08881 412 ft 0 kts 148°
2026-04-30 10:58 36.80041 27.08899 412 ft 11 kts 148°
2026-04-30 10:58 36.79977 27.08948 414 ft 10 kts 148°
2026-04-30 10:59 36.79906 27.08980 415 ft 12 kts 178°
2026-04-30 10:59 36.79822 27.08983 410 ft 11 kts 178°
2026-04-30 10:59 36.79750 27.08986 416 ft 10 kts 177°
2026-04-30 10:59 36.79673 27.08990 417 ft 12 kts 178°
2026-04-30 11:00 36.79599 27.09006 410 ft 11 kts 157°
2026-04-30 11:00 36.79470 27.09104 412 ft 32 kts 148°
2026-04-30 11:00 36.79274 27.09257 409 ft 35 kts 148°
2026-04-30 11:00 36.79067 27.09419 399 ft 36 kts 148°
2026-04-30 11:01 36.78854 27.09584 396 ft 36 kts 148°
2026-04-30 11:01 36.78665 27.09731 393 ft 20 kts 148°
2026-04-30 11:01 36.78596 27.09818 389 ft 13 kts 118°
2026-04-30 11:01 36.78565 27.09789 389 ft 8 kts 321°
2026-04-30 11:02 36.78606 27.09776 390 ft 4 kts 344°
2026-04-30 11:02 36.78620 27.09767 391 ft 1 kts 329°
2026-04-30 11:02 36.78647 27.09746 392 ft 23 kts 328°
2026-04-30 11:02 36.79014 27.09461 398 ft 97 kts 328°
2026-04-30 11:03 36.79743 27.08892 424 ft 148 kts 327°
2026-04-30 11:03 36.80654 27.08188 885 ft 153 kts 327°
2026-04-30 11:03 36.81451 27.07325 1511 ft 155 kts 300°
2026-04-30 11:04 36.81525 27.04516 2431 ft 176 kts 274°
2026-04-30 11:04 36.81929 27.03011 2750 ft 194 kts 300°
2026-04-30 11:04 36.82681 27.01520 3141 ft 206 kts 306°
2026-04-30 11:04 36.83509 27.00043 3716 ft 211 kts 307°
2026-04-30 11:05 36.84370 26.98527 4228 ft 220 kts 306°
2026-04-30 11:05 36.85274 26.96866 4557 ft 243 kts 305°
2026-04-30 11:05 36.86249 26.95030 4958 ft 262 kts 304°
2026-04-30 11:05 36.87257 26.93091 5659 ft 269 kts 303°
2026-04-30 11:06 36.88273 26.91111 6462 ft 272 kts 303°
2026-04-30 11:06 36.89298 26.89109 7244 ft 275 kts 303°
2026-04-30 11:06 36.90319 26.87114 8016 ft 277 kts 303°
2026-04-30 11:06 36.91361 26.85075 8810 ft 280 kts 302°
2026-04-30 11:07 36.92413 26.83014 9612 ft 282 kts 302°
2026-04-30 11:07 36.93472 26.80936 10293 ft 288 kts 302°
2026-04-30 11:07 36.94577 26.78727 10480 ft 311 kts 300°
2026-04-30 11:07 36.95667 26.76276 10627 ft 334 kts 297°
2026-04-30 11:08 36.96960 26.73755 10745 ft 356 kts 310°
2026-04-30 11:08 36.98943 26.71801 11056 ft 372 kts 332°
2026-04-30 11:08 37.01446 26.70902 11601 ft 381 kts 354°
2026-04-30 11:08 37.04057 26.71255 12189 ft 389 kts 16°
2026-04-30 11:09 37.06449 26.72877 12777 ft 398 kts 39°
2026-04-30 11:09 37.08388 26.75381 13363 ft 403 kts 44°
2026-04-30 11:09 37.10575 26.77560 13920 ft 403 kts 27°
2026-04-30 11:09 37.13177 26.78842 14430 ft 402 kts 10°
2026-04-30 11:10 37.15948 26.79114 14961 ft 400 kts 353°
2026-04-30 11:10 37.18646 26.78349 15499 ft 398 kts 336°
2026-04-30 11:10 37.21046 26.76648 16064 ft 397 kts 323°
2026-04-30 11:10 37.23311 26.74644 16621 ft 400 kts 323°
2026-04-30 11:11 37.25592 26.72623 17150 ft 402 kts 323°
2026-04-30 11:11 37.27886 26.70589 17666 ft 405 kts 323°
2026-04-30 11:11 37.30197 26.68541 18174 ft 408 kts 323°
2026-04-30 11:11 37.32522 26.66484 18621 ft 410 kts 323°
2026-04-30 11:12 37.34864 26.64417 19059 ft 412 kts 322°
2026-04-30 11:12 37.37218 26.62334 19476 ft 414 kts 322°
2026-04-30 11:12 37.39581 26.60236 19881 ft 417 kts 322°
2026-04-30 11:12 37.41954 26.58129 20279 ft 419 kts 322°
2026-04-30 11:13 37.44340 26.56010 20662 ft 421 kts 322°
2026-04-30 11:13 37.46741 26.53876 21034 ft 423 kts 322°
2026-04-30 11:13 37.49149 26.51735 21408 ft 425 kts 322°
2026-04-30 11:13 37.51577 26.49575 21769 ft 427 kts 322°
2026-04-30 11:14 37.54008 26.47410 22117 ft 429 kts 322°
2026-04-30 11:14 37.56448 26.45234 22448 ft 431 kts 322°
2026-04-30 11:14 37.58873 26.43069 22790 ft 433 kts 322°
2026-04-30 11:14 37.61342 26.40868 23127 ft 435 kts 322°
2026-04-30 11:15 37.63817 26.38656 23455 ft 437 kts 322°
2026-04-30 11:15 37.66299 26.36434 23745 ft 439 kts 322°
2026-04-30 11:15 37.68800 26.34193 24018 ft 440 kts 322°
2026-04-30 11:15 37.71302 26.31950 24281 ft 441 kts 322°
2026-04-30 11:16 37.73817 26.29694 24539 ft 443 kts 322°
2026-04-30 11:16 37.76332 26.27437 24787 ft 444 kts 322°
2026-04-30 11:16 37.78856 26.25174 25035 ft 445 kts 322°
2026-04-30 11:16 37.81382 26.22905 25263 ft 446 kts 322°
2026-04-30 11:17 37.83919 26.20624 25498 ft 447 kts 322°
2026-04-30 11:17 37.86456 26.18338 25716 ft 448 kts 322°
2026-04-30 11:17 37.89002 26.16041 25945 ft 449 kts 322°
2026-04-30 11:17 37.91551 26.13738 26151 ft 450 kts 322°
2026-04-30 11:18 37.94098 26.11438 26412 ft 449 kts 322°
2026-04-30 11:18 37.99178 26.06852 26982 ft 447 kts 322°
2026-04-30 11:18 38.01708 26.04561 27269 ft 446 kts 322°
2026-04-30 11:19 38.04240 26.02264 27570 ft 446 kts 322°
2026-04-30 11:19 38.06757 25.99977 27853 ft 445 kts 322°
2026-04-30 11:19 38.09267 25.97698 28150 ft 444 kts 322°
2026-04-30 11:19 38.11779 25.95419 28450 ft 443 kts 322°
2026-04-30 11:20 38.14252 25.93173 28743 ft 442 kts 322°
2026-04-30 11:20 38.16749 25.90900 29064 ft 441 kts 321°
2026-04-30 11:20 38.19240 25.88631 29382 ft 440 kts 321°
2026-04-30 11:20 38.21726 25.86365 29694 ft 439 kts 321°
2026-04-30 11:21 38.24205 25.84101 30000 ft 438 kts 321°
2026-04-30 11:21 38.26679 25.81839 30273 ft 437 kts 321°
2026-04-30 11:21 38.29152 25.79578 30524 ft 437 kts 321°
2026-04-30 11:21 38.31613 25.77327 30772 ft 436 kts 321°
2026-04-30 11:22 38.34074 25.75072 31027 ft 435 kts 321°
2026-04-30 11:22 38.36530 25.72819 31286 ft 434 kts 321°
2026-04-30 11:22 38.38980 25.70572 31538 ft 434 kts 321°
2026-04-30 11:22 38.41430 25.68322 31783 ft 433 kts 321°
2026-04-30 11:23 38.43871 25.66080 32061 ft 432 kts 321°
2026-04-30 11:23 38.46307 25.63841 32323 ft 431 kts 321°
2026-04-30 11:23 38.51167 25.59369 32817 ft 430 kts 321°
2026-04-30 11:24 38.53593 25.57134 33068 ft 430 kts 320°
2026-04-30 11:24 38.56011 25.54901 33314 ft 429 kts 320°
2026-04-30 11:24 38.58433 25.52662 33557 ft 429 kts 320°
2026-04-30 11:25 38.63233 25.48225 34000 ft 428 kts 320°
2026-04-30 11:25 38.65650 25.45988 34042 ft 431 kts 320°
2026-04-30 11:26 38.74559 25.37714 34052 ft 432 kts 320°
2026-04-30 11:26 38.79425 25.33191 34050 ft 432 kts 320°
2026-04-30 11:27 38.84295 25.28668 34048 ft 432 kts 320°
2026-04-30 11:27 38.89160 25.24138 34056 ft 432 kts 320°
2026-04-30 11:28 38.96451 25.17311 34073 ft 432 kts 320°
2026-04-30 11:29 39.01304 25.12752 34071 ft 432 kts 320°
2026-04-30 11:29 39.08584 25.05917 34072 ft 431 kts 320°
2026-04-30 11:30 39.15828 24.99110 34086 ft 431 kts 320°
2026-04-30 11:31 39.20660 24.94545 34080 ft 431 kts 320°
2026-04-30 11:31 39.25490 24.89969 34088 ft 430 kts 320°
2026-04-30 11:32 39.30311 24.85404 34082 ft 430 kts 320°
2026-04-30 11:32 39.35131 24.80835 34078 ft 429 kts 320°
2026-04-30 11:33 39.42342 24.73971 34060 ft 429 kts 320°
2026-04-30 11:33 39.47151 24.69397 34071 ft 428 kts 320°
2026-04-30 11:34 39.51917 24.64785 34084 ft 427 kts 318°
2026-04-30 11:34 39.56519 24.59925 34083 ft 426 kts 316°
2026-04-30 11:35 39.61061 24.54997 34083 ft 426 kts 316°
2026-04-30 11:35 39.65627 24.50104 34080 ft 426 kts 317°
2026-04-30 11:36 39.70187 24.45266 34084 ft 426 kts 317°
2026-04-30 11:36 39.74770 24.40401 34083 ft 426 kts 317°
2026-04-30 11:37 39.79354 24.35524 34102 ft 425 kts 317°
2026-04-30 11:37 39.83930 24.30648 34090 ft 425 kts 317°
2026-04-30 11:38 39.88501 24.25766 34082 ft 425 kts 317°
2026-04-30 11:38 39.93060 24.20862 34074 ft 425 kts 317°
2026-04-30 11:39 39.97623 24.15953 34076 ft 425 kts 317°
2026-04-30 11:39 40.02190 24.11054 34090 ft 425 kts 317°
2026-04-30 11:40 40.06746 24.06149 34092 ft 424 kts 316°
2026-04-30 11:40 40.11292 24.01237 34089 ft 424 kts 316°
2026-04-30 11:41 40.15837 23.96324 34081 ft 423 kts 316°
2026-04-30 11:41 40.20370 23.91413 34081 ft 423 kts 316°
2026-04-30 11:42 40.24871 23.86528 34073 ft 423 kts 316°
2026-04-30 11:42 40.29409 23.81586 34071 ft 423 kts 316°
2026-04-30 11:43 40.33932 23.76655 34066 ft 423 kts 316°
2026-04-30 11:43 40.38455 23.71721 34067 ft 423 kts 316°
2026-04-30 11:44 40.42973 23.66781 34063 ft 423 kts 316°
2026-04-30 11:44 40.47490 23.61832 34052 ft 423 kts 316°
2026-04-30 11:45 40.52007 23.56879 34054 ft 423 kts 316°
2026-04-30 11:45 40.56523 23.51921 34081 ft 423 kts 315°
2026-04-30 11:46 40.61027 23.46965 34070 ft 422 kts 315°
2026-04-30 11:46 40.65530 23.42004 34066 ft 421 kts 315°
2026-04-30 11:47 40.69984 23.37086 34062 ft 421 kts 315°
2026-04-30 11:47 40.74493 23.32090 34058 ft 420 kts 315°
2026-04-30 11:48 40.78940 23.27153 34055 ft 420 kts 315°
2026-04-30 11:48 40.83408 23.22175 34081 ft 420 kts 315°
2026-04-30 11:49 40.87874 23.17202 34068 ft 420 kts 315°
2026-04-30 11:49 40.92342 23.12224 34063 ft 420 kts 315°
2026-04-30 11:50 40.96799 23.07253 34078 ft 419 kts 315°
2026-04-30 11:50 41.01246 23.02273 34073 ft 418 kts 314°
2026-04-30 11:51 41.05690 22.97291 34080 ft 418 kts 314°
2026-04-30 11:51 41.10113 22.92327 34079 ft 412 kts 314°
2026-04-30 11:52 41.14452 22.87446 34082 ft 408 kts 314°
2026-04-30 11:52 41.18773 22.82572 34097 ft 407 kts 314°
2026-04-30 11:53 41.23053 22.77736 34099 ft 406 kts 314°
2026-04-30 11:53 41.27023 22.72495 34106 ft 400 kts 308°
2026-04-30 11:54 41.30759 22.67028 34129 ft 398 kts 308°
2026-04-30 11:54 41.34486 22.61569 34127 ft 397 kts 308°
2026-04-30 11:55 41.38171 22.56161 34132 ft 391 kts 307°
2026-04-30 11:55 41.41822 22.50796 34133 ft 390 kts 307°
2026-04-30 11:56 41.45468 22.45431 34156 ft 390 kts 308°
2026-04-30 11:56 41.49112 22.40069 34155 ft 390 kts 307°
2026-04-30 11:57 41.52746 22.34701 34160 ft 390 kts 307°
2026-04-30 11:57 41.56377 22.29323 34177 ft 390 kts 307°
2026-04-30 11:58 41.60008 22.23941 34177 ft 390 kts 307°
2026-04-30 11:58 41.63632 22.18548 34226 ft 389 kts 306°
2026-04-30 11:59 41.67248 22.13169 34218 ft 389 kts 307°
2026-04-30 11:59 41.70858 22.07776 34207 ft 389 kts 306°
2026-04-30 12:00 41.74444 22.02411 34212 ft 389 kts 307°
2026-04-30 12:00 41.78062 21.97019 34227 ft 389 kts 307°
2026-04-30 12:01 41.81677 21.91613 34247 ft 389 kts 306°
2026-04-30 12:01 41.85273 21.86203 34252 ft 388 kts 306°
2026-04-30 12:02 41.88865 21.80795 34258 ft 388 kts 306°
2026-04-30 12:02 41.92458 21.75378 34305 ft 388 kts 306°
2026-04-30 12:03 41.97829 21.67266 34299 ft 387 kts 306°
2026-04-30 12:04 42.01404 21.61858 34289 ft 386 kts 306°
2026-04-30 12:04 42.04943 21.56487 34283 ft 386 kts 306°
2026-04-30 12:05 42.08508 21.51072 34267 ft 386 kts 306°
2026-04-30 12:05 42.12063 21.45656 34264 ft 386 kts 306°
2026-04-30 12:06 42.15624 21.40226 34261 ft 386 kts 306°
2026-04-30 12:06 42.19133 21.34762 34257 ft 385 kts 304°
2026-04-30 12:07 42.22585 21.29258 34281 ft 384 kts 304°
2026-04-30 12:07 42.26024 21.23756 34285 ft 383 kts 304°
2026-04-30 12:08 42.29470 21.18268 34286 ft 383 kts 304°
2026-04-30 12:08 42.32911 21.12783 34288 ft 382 kts 304°
2026-04-30 12:09 42.36332 21.07329 34284 ft 383 kts 304°
2026-04-30 12:09 42.39779 21.01817 34276 ft 383 kts 304°
2026-04-30 12:10 42.43221 20.96300 34268 ft 383 kts 304°
2026-04-30 12:10 42.46661 20.90777 34268 ft 384 kts 304°
2026-04-30 12:11 42.50100 20.85247 34276 ft 385 kts 303°
2026-04-30 12:11 42.53553 20.79682 34270 ft 386 kts 304°
2026-04-30 12:12 42.56428 20.75042 34249 ft 388 kts 304°
2026-04-30 12:12 42.60469 20.68499 34244 ft 390 kts 304°
2026-04-30 12:13 42.63949 20.62845 34247 ft 391 kts 304°
2026-04-30 12:13 42.66876 20.58091 34252 ft 392 kts 304°
2026-04-30 12:14 42.70375 20.52408 34256 ft 392 kts 304°
2026-04-30 12:14 42.73872 20.46713 34264 ft 392 kts 304°
2026-04-30 12:15 42.77354 20.41019 34276 ft 395 kts 305°
2026-04-30 12:15 42.80885 20.35237 34259 ft 398 kts 305°
2026-04-30 12:16 42.84434 20.29423 34257 ft 400 kts 305°
2026-04-30 12:16 42.87998 20.23587 34259 ft 401 kts 305°
2026-04-30 12:17 42.93351 20.14774 34266 ft 402 kts 305°
2026-04-30 12:17 42.96890 20.08920 34271 ft 403 kts 305°
2026-04-30 12:18 43.00470 20.03012 34274 ft 403 kts 305°
2026-04-30 12:18 43.04045 19.97112 34277 ft 403 kts 305°
2026-04-30 12:19 43.07610 19.91192 34280 ft 404 kts 305°
2026-04-30 12:19 43.11168 19.85251 34280 ft 403 kts 305°
2026-04-30 12:20 43.14728 19.79308 34296 ft 404 kts 305°
2026-04-30 12:20 43.18291 19.73357 34292 ft 404 kts 305°
2026-04-30 12:21 43.21853 19.67398 34283 ft 404 kts 305°
2026-04-30 12:21 43.25442 19.61440 34281 ft 405 kts 306°
2026-04-30 12:22 43.29164 19.55623 34274 ft 406 kts 308°
2026-04-30 12:22 43.32935 19.49834 34283 ft 407 kts 308°
2026-04-30 12:23 43.36692 19.44002 34279 ft 408 kts 308°
2026-04-30 12:23 43.40410 19.38159 34274 ft 409 kts 308°
2026-04-30 12:24 43.44176 19.32218 34272 ft 409 kts 308°
2026-04-30 12:24 43.47923 19.26303 34270 ft 410 kts 308°
2026-04-30 12:25 43.51680 19.20381 34257 ft 410 kts 308°
2026-04-30 12:25 43.55433 19.14466 34264 ft 410 kts 308°
2026-04-30 12:26 43.59163 19.08552 34283 ft 411 kts 308°
2026-04-30 12:26 43.62923 19.02574 34277 ft 413 kts 308°
2026-04-30 12:27 43.66684 18.96583 34269 ft 413 kts 308°
2026-04-30 12:27 43.70454 18.90568 34267 ft 413 kts 309°
2026-04-30 12:28 43.74218 18.84549 34276 ft 414 kts 309°
2026-04-30 12:28 43.77980 18.78517 34274 ft 414 kts 309°
2026-04-30 12:29 43.81724 18.72509 34277 ft 414 kts 309°
2026-04-30 12:29 43.85488 18.66454 34291 ft 415 kts 309°
2026-04-30 12:30 43.89251 18.60386 34292 ft 415 kts 309°
2026-04-30 12:30 43.93006 18.54314 34292 ft 415 kts 309°
2026-04-30 12:31 43.96763 18.48238 34293 ft 415 kts 309°
2026-04-30 12:31 44.00518 18.42144 34291 ft 415 kts 309°
2026-04-30 12:32 44.04268 18.36051 34292 ft 415 kts 309°
2026-04-30 12:32 44.08022 18.29941 34296 ft 415 kts 309°
2026-04-30 12:33 44.11774 18.23826 34299 ft 416 kts 309°
2026-04-30 12:33 44.15532 18.17681 34295 ft 417 kts 309°
2026-04-30 12:34 44.19291 18.11503 34291 ft 418 kts 309°
2026-04-30 12:34 44.23032 18.05340 34285 ft 419 kts 309°
2026-04-30 12:35 44.26793 17.99139 34300 ft 419 kts 309°
2026-04-30 12:35 44.30559 17.92925 34306 ft 419 kts 309°
2026-04-30 12:36 44.34332 17.86694 34300 ft 419 kts 309°
2026-04-30 12:36 44.38092 17.80462 34312 ft 420 kts 309°
2026-04-30 12:37 44.41862 17.74203 34305 ft 421 kts 309°
2026-04-30 12:37 44.45640 17.67912 34309 ft 422 kts 309°
2026-04-30 12:38 44.49395 17.61649 34314 ft 423 kts 309°
2026-04-30 12:38 44.53172 17.55333 34309 ft 423 kts 309°
2026-04-30 12:39 44.56948 17.49002 34310 ft 423 kts 309°
2026-04-30 12:39 44.60718 17.42671 34323 ft 423 kts 309°
2026-04-30 12:40 44.64486 17.36326 34355 ft 423 kts 309°
2026-04-30 12:40 44.68256 17.29963 34344 ft 424 kts 310°
2026-04-30 12:41 44.72031 17.23577 34321 ft 424 kts 309°
2026-04-30 12:41 44.75802 17.17192 34334 ft 424 kts 309°
2026-04-30 12:42 44.79564 17.10791 34339 ft 424 kts 309°
2026-04-30 12:42 44.83325 17.04379 34339 ft 424 kts 309°
2026-04-30 12:43 44.87088 16.97972 34341 ft 424 kts 309°
2026-04-30 12:43 44.90852 16.91548 34347 ft 425 kts 310°
2026-04-30 12:44 44.94586 16.85139 34332 ft 426 kts 309°
2026-04-30 12:44 44.98351 16.78666 34325 ft 427 kts 309°
2026-04-30 12:45 45.02115 16.72179 34331 ft 427 kts 309°
2026-04-30 12:45 45.05877 16.65664 34315 ft 428 kts 309°
2026-04-30 12:46 45.09653 16.59144 34328 ft 428 kts 309°
2026-04-30 12:46 45.13430 16.52618 34337 ft 428 kts 309°
2026-04-30 12:47 45.17192 16.46086 34362 ft 428 kts 310°
2026-04-30 12:47 45.20958 16.39525 34343 ft 429 kts 310°
2026-04-30 12:48 45.24722 16.32934 34324 ft 430 kts 309°
2026-04-30 12:48 45.28494 16.26331 34335 ft 430 kts 309°
2026-04-30 12:49 45.32266 16.19718 34342 ft 431 kts 309°
2026-04-30 12:49 45.36010 16.13135 34344 ft 431 kts 309°
2026-04-30 12:50 45.39777 16.06509 34330 ft 431 kts 310°
2026-04-30 12:50 45.43541 15.99861 34340 ft 431 kts 309°
2026-04-30 12:51 45.47303 15.93199 34351 ft 432 kts 310°
2026-04-30 12:51 45.51071 15.86502 34352 ft 433 kts 310°
2026-04-30 12:52 45.54834 15.79799 34355 ft 433 kts 310°
2026-04-30 12:52 45.58602 15.73080 34344 ft 433 kts 310°
2026-04-30 12:53 45.62368 15.66349 34354 ft 434 kts 310°
2026-04-30 12:53 45.66134 15.59609 34363 ft 434 kts 310°
2026-04-30 12:54 45.69894 15.52849 34370 ft 434 kts 310°
2026-04-30 12:54 45.73649 15.46088 34369 ft 434 kts 310°
2026-04-30 12:55 45.77402 15.39316 34374 ft 434 kts 310°
2026-04-30 12:55 45.81155 15.32531 34374 ft 434 kts 310°
2026-04-30 12:56 45.84268 15.26888 34378 ft 434 kts 309°
2026-04-30 12:56 45.88617 15.18972 34377 ft 434 kts 309°
2026-04-30 12:57 45.92356 15.12157 34351 ft 434 kts 310°
2026-04-30 12:57 45.95492 15.06440 34357 ft 435 kts 310°
2026-04-30 12:58 45.99228 14.99603 34362 ft 435 kts 310°
2026-04-30 12:58 46.02970 14.92740 34360 ft 436 kts 310°
2026-04-30 12:59 46.06714 14.85849 34346 ft 437 kts 310°
2026-04-30 12:59 46.10449 14.78947 34321 ft 437 kts 310°
2026-04-30 13:00 46.14183 14.72031 34317 ft 437 kts 310°
2026-04-30 13:00 46.17922 14.65113 34316 ft 437 kts 310°
2026-04-30 13:01 46.21655 14.58178 34322 ft 437 kts 310°
2026-04-30 13:01 46.25363 14.51272 34295 ft 438 kts 310°
2026-04-30 13:02 46.29093 14.44311 34302 ft 438 kts 311°
2026-04-30 13:02 46.32830 14.37324 34306 ft 439 kts 310°
2026-04-30 13:03 46.36557 14.30323 34313 ft 440 kts 310°
2026-04-30 13:03 46.40288 14.23300 34313 ft 440 kts 310°
2026-04-30 13:04 46.44019 14.16267 34292 ft 440 kts 311°
2026-04-30 13:04 46.47741 14.09230 34303 ft 439 kts 311°
2026-04-30 13:05 46.51465 14.02174 34305 ft 439 kts 311°
2026-04-30 13:06 46.57040 13.91571 34300 ft 441 kts 311°
2026-04-30 13:06 46.60758 13.84467 34273 ft 442 kts 311°
2026-04-30 13:07 46.64498 13.77323 34287 ft 444 kts 311°
2026-04-30 13:07 46.68237 13.70171 34275 ft 444 kts 311°
2026-04-30 13:08 46.71964 13.62995 34281 ft 444 kts 311°
2026-04-30 13:08 46.75659 13.55854 34274 ft 444 kts 311°
2026-04-30 13:09 46.79386 13.48666 34250 ft 444 kts 311°
2026-04-30 13:09 46.83114 13.41457 34248 ft 445 kts 312°
2026-04-30 13:10 46.86834 13.34242 34253 ft 445 kts 312°
2026-04-30 13:10 46.90561 13.26990 34244 ft 446 kts 312°
2026-04-30 13:11 46.94277 13.19717 34217 ft 446 kts 311°
2026-04-30 13:11 46.97987 13.12445 34231 ft 446 kts 312°
2026-04-30 13:12 47.01705 13.05157 34235 ft 445 kts 312°
2026-04-30 13:12 47.05408 12.97868 34250 ft 445 kts 311°
2026-04-30 13:13 47.10965 12.86900 34246 ft 447 kts 312°
2026-04-30 13:14 47.16513 12.75921 34248 ft 449 kts 312°
2026-04-30 13:14 47.22085 12.64836 34260 ft 449 kts 311°
2026-04-30 13:15 47.27645 12.53731 34264 ft 449 kts 311°
2026-04-30 13:16 47.31347 12.46310 34247 ft 449 kts 312°
2026-04-30 13:16 47.35042 12.38877 34255 ft 450 kts 312°
2026-04-30 13:17 47.40596 12.27669 34267 ft 452 kts 312°
2026-04-30 13:18 47.46162 12.16412 34268 ft 452 kts 311°
2026-04-30 13:18 47.51704 12.05074 34290 ft 456 kts 308°
2026-04-30 13:19 47.54332 11.96414 34291 ft 470 kts 290°
2026-04-30 13:19 47.55644 11.86866 34290 ft 473 kts 286°
2026-04-30 13:20 47.56897 11.77307 34235 ft 473 kts 286°
2026-04-30 13:20 47.58149 11.67690 34292 ft 475 kts 285°
2026-04-30 13:21 47.59387 11.58077 34291 ft 475 kts 286°
2026-04-30 13:22 47.61244 11.43691 34288 ft 475 kts 285°
2026-04-30 13:22 47.63084 11.29246 34262 ft 475 kts 285°
2026-04-30 13:23 47.64895 11.14809 34274 ft 475 kts 285°
2026-04-30 13:24 47.67298 10.95479 34238 ft 475 kts 285°
2026-04-30 13:25 47.69660 10.76214 34276 ft 476 kts 284°
2026-04-30 13:26 47.72563 10.52027 34246 ft 476 kts 284°
2026-04-30 13:28 47.74423 10.27561 34258 ft 483 kts 271°
2026-04-30 13:28 47.74073 10.12606 34230 ft 483 kts 271°
2026-04-30 13:29 47.73591 9.92650 33245 ft 484 kts 271°
2026-04-30 13:30 47.73216 9.77580 31894 ft 489 kts 271°
2026-04-30 13:31 47.72943 9.67441 31010 ft 492 kts 270°
2026-04-30 13:31 47.72470 9.52171 28488 ft 499 kts 266°
2026-04-30 13:32 47.70760 9.42224 26047 ft 506 kts 247°
2026-04-30 13:32 47.67084 9.33409 25019 ft 504 kts 231°
2026-04-30 13:33 47.62755 9.25462 23839 ft 473 kts 231°
2026-04-30 13:33 47.58826 9.18188 22363 ft 435 kts 232°
2026-04-30 13:34 47.56969 9.14733 21586 ft 423 kts 232°
2026-04-30 13:34 47.51675 9.04878 19358 ft 394 kts 232°
2026-04-30 13:35 47.50005 9.01717 18657 ft 386 kts 236°
2026-04-30 13:35 47.48633 8.94427 17090 ft 365 kts 278°
2026-04-30 13:36 47.50160 8.88908 15828 ft 345 kts 311°
2026-04-30 13:36 47.51649 8.86145 15092 ft 342 kts 314°
2026-04-30 13:36 47.54661 8.80755 13613 ft 337 kts 313°
2026-04-30 13:37 47.56178 8.78128 12813 ft 333 kts 314°
2026-04-30 13:37 47.59204 8.73011 11311 ft 327 kts 314°
2026-04-30 13:38 47.62218 8.68084 9837 ft 319 kts 314°
2026-04-30 13:38 47.63708 8.65664 9049 ft 316 kts 313°
2026-04-30 13:38 47.66644 8.60960 8038 ft 301 kts 313°
2026-04-30 13:39 47.69378 8.56560 7529 ft 287 kts 314°
2026-04-30 13:39 47.71842 8.51885 6538 ft 295 kts 290°
2026-04-30 13:40 47.72145 8.48859 5949 ft 301 kts 264°
2026-04-30 13:40 47.71536 8.45900 5409 ft 302 kts 238°
2026-04-30 13:40 47.70428 8.43327 5209 ft 291 kts 235°
2026-04-30 13:40 47.69311 8.40903 5086 ft 286 kts 233°
2026-04-30 13:41 47.68180 8.38446 5006 ft 287 kts 232°
2026-04-30 13:41 47.66994 8.36195 4991 ft 261 kts 216°
2026-04-30 13:41 47.65509 8.35033 4999 ft 230 kts 190°
2026-04-30 13:41 47.63974 8.34752 4998 ft 219 kts 173°
2026-04-30 13:42 47.62499 8.35096 4996 ft 212 kts 156°
2026-04-30 13:42 47.61179 8.35985 4853 ft 208 kts 142°
2026-04-30 13:42 47.59022 8.38780 4328 ft 202 kts 134°
2026-04-30 13:43 47.58001 8.40184 4083 ft 198 kts 131°
2026-04-30 13:43 47.57028 8.41519 3829 ft 187 kts 131°
2026-04-30 13:43 47.56090 8.42807 3567 ft 179 kts 131°
2026-04-30 13:43 47.55207 8.44015 3348 ft 167 kts 130°
2026-04-30 13:44 47.54372 8.45162 3120 ft 162 kts 130°
2026-04-30 13:44 47.53501 8.46365 2906 ft 178 kts 131°
2026-04-30 13:44 47.52630 8.47551 2693 ft 161 kts 131°
2026-04-30 13:44 47.51853 8.48611 2465 ft 145 kts 130°
2026-04-30 13:45 47.50422 8.50586 2051 ft 139 kts 130°
2026-04-30 13:45 47.49727 8.51567 1822 ft 138 kts 128°
2026-04-30 13:45 47.49010 8.52505 1651 ft 140 kts 133°
2026-04-30 13:46 47.48290 8.53505 1474 ft 143 kts 129°
2026-04-30 13:46 47.47595 8.54435 1401 ft 121 kts 135°
2026-04-30 13:46 47.47072 8.55163 1385 ft 83 kts 138°
2026-04-30 13:46 47.46766 8.55568 1394 ft 40 kts 144°
2026-04-30 13:47 47.46567 8.55687 1399 ft 19 kts 167°
2026-04-30 13:47 47.46444 8.55729 1401 ft 17 kts 168°
2026-04-30 13:47 47.46358 8.55795 1403 ft 11 kts 136°
2026-04-30 13:47 47.46309 8.55858 1404 ft 9 kts 138°
2026-04-30 13:48 47.46217 8.55981 1409 ft 18 kts 143°
2026-04-30 13:48 47.46087 8.55986 1407 ft 21 kts 188°
2026-04-30 13:48 47.45949 8.55958 1413 ft 19 kts 196°
2026-04-30 13:48 47.45835 8.55899 1410 ft 16 kts 200°
2026-04-30 13:49 47.45735 8.55870 1412 ft 14 kts 186°
2026-04-30 13:49 47.45645 8.55799 1409 ft 17 kts 262°
2026-04-30 13:49 47.45658 8.55591 1404 ft 23 kts 275°
2026-04-30 13:49 47.45667 8.55364 1400 ft 18 kts 245°
2026-04-30 13:50 47.45565 8.55380 1400 ft 15 kts 152°
2026-04-30 13:50 47.45416 8.55481 1408 ft 11 kts 156°
2026-04-30 13:50 47.45326 8.55542 1406 ft 15 kts 155°
2026-04-30 13:51 47.45270 8.55652 1409 ft 15 kts 94°
2026-04-30 13:51 47.45258 8.55825 1413 ft 17 kts 96°
2026-04-30 13:51 47.45273 8.55933 1409 ft 9 kts 18°
2026-04-30 13:51 47.45323 8.55942 1413 ft 4 kts
2026-04-30 13:52 47.45329 8.55943 1413 ft 1 kts
2026-04-30 13:52 47.45336 8.55944 1410 ft 1 kts
2026-04-30 13:52 47.45337 8.55944 1410 ft 0 kts